#datint,netname,site,siteID,timestamp,IntT_Avg,BattV_Min,AirT2_Avg,AirT_Avg,AirT_Max,AirT_Min,SolarW_Avg,SolarMJ,WindS_Max,WindS_Avg,WindD_Avg,WindD_SD,EA_Avg,RH_Max,RH_Min,Td_Avg,Td_Max,Td_Min,ETo,ETr,SoilT4_Avg,SoilT8_Avg,SoilVWC8_Avg,wetstate_Avg,wetT_Avg,precip_accum,Precip_WPG,Precip_TB,Rso
hly,AgWx,beryljct,423,16APR2019:00:00:00,54.3,12.92,52.9,52.9,53.3,52.4,0,0.0001,14.7,9.9,181,9.9,0.527,40,36,28.0,29.0,27.2,0.00206,0.00257,.,49.6,25,0,52.8,13.51,0.00,0.00,1E-6
hly,AgWx,beryljct,423,16APR2019:01:00:00,54.5,12.9,54.6,54.2,55.0,52.2,0,0.0002,26.6,15.0,195,9.3,0.504,40,34,27.4,28.9,26.5,0.00283,0.00335,.,49.6,25,0,54.2,13.51,0.00,0.00,1E-6
hly,AgWx,beryljct,423,16APR2019:02:00:00,55.1,12.88,53.7,53.8,54.6,52.5,0,0.0002,27.2,18.4,194,9.9,0.496,40,33,26.6,28.8,25.5,0.00312,0.00361,.,49.5,25,0,53.8,13.51,0.00,0.00,1E-6
hly,AgWx,beryljct,423,16APR2019:03:00:00,53.8,12.86,51.6,51.7,52.7,50.4,0,0.0002,34.0,22.8,196,9.0,0.551,45,38,29.1,30.6,27.5,0.00284,0.00319,.,49.4,25,0,51.9,13.52,0.02,0.00,1E-6
hly,AgWx,beryljct,423,16APR2019:04:00:00,51.7,12.85,49.4,49.3,50.5,48.7,0,0.0002,31.0,15.7,189,10,0.613,53,45,32.0,32.6,30.1,0.00183,0.00214,.,49.3,25,0,49.6,13.51,0.01,0.00,0.0001469246
hly,AgWx,beryljct,423,16APR2019:05:00:00,50.7,12.84,49.4,49.1,49.6,48.7,0,0.0002,24.1,15.7,189,11,0.601,52,48,31.6,32.3,30.8,0.00410,0.00686,.,49.2,25,0,49.5,13.52,0.00,0.00,0.117642908
hly,AgWx,beryljct,423,16APR2019:06:00:00,50.5,12.84,49.1,49.0,49.4,48.2,17,0.0624,20.7,12.8,180,8.8,0.620,55,51,32.2,32.9,31.7,0.00443,0.00755,.,49.1,25,0,49.6,13.51,0.00,0.00,0.7316757
hly,AgWx,beryljct,423,16APR2019:07:00:00,50.1,12.85,48.9,48.5,49.2,48.1,71,0.2551,20.5,13.6,184,7.7,0.666,59,55,34.0,35.1,32.9,0.00492,0.00784,.,49.0,25,0,50.0,13.52,0.00,0.00,1.5076791
hly,AgWx,beryljct,423,16APR2019:08:00:00,51.3,13,50.0,49.6,51.1,48.6,227,0.8158,25.6,15.6,193,8.7,0.665,59,52,33.8,35.1,32.5,0.00761,0.01116,.,48.9,25,0,55.0,13.52,0.00,0.00,2.2292585
hly,AgWx,beryljct,423,16APR2019:09:00:00,53.3,13.31,50.0,50.2,50.9,49.2,322,1.1585,29.3,17.8,195,9.6,0.689,59,54,35.2,36.5,34.2,0.00895,0.01275,.,48.8,25,0,56.9,13.51,0.00,0.00,2.8120368
hly,AgWx,beryljct,423,16APR2019:10:00:00,51.9,13.24,48.8,48.7,49.2,47.9,156,0.5620,23.0,16.3,199,9.6,0.703,65,57,35.5,36.9,34.3,0.00625,0.00937,.,48.8,25,0,52.1,13.52,0.01,0.00,3.2160022
hly,AgWx,beryljct,423,16APR2019:11:00:00,49.4,13.16,46.8,46.8,48.1,45.9,90,0.3249,19.3,12.3,205,8.8,0.780,76,63,37.9,39.4,35.9,0.00372,0.00555,.,48.7,25,0,48.8,13.52,0.00,0.00,3.3945855
hly,AgWx,beryljct,423,16APR2019:12:00:00,47.7,13.23,46.1,46.0,46.6,44.4,185,0.6671,14.5,10.2,221,12,0.830,85,74,39.6,42.0,38.2,0.00447,0.00579,.,48.7,25,6,48.7,13.54,0.02,0.00,3.3474909
hly,AgWx,beryljct,423,16APR2019:13:00:00,46.5,13.2,44.4,43.9,44.6,43.3,107,0.3868,12.0,8.2,286,10,0.834,87,82,39.6,40.8,38.4,0.00260,0.00335,.,48.7,25,37,44.8,13.55,0.01,0.01,3.0834567
hly,AgWx,beryljct,423,16APR2019:14:00:00,45.9,13.16,44.4,43.8,44.2,43.2,101,0.3642,10.2,6.6,249,12,0.800,86,80,38.8,39.7,37.8,0.00256,0.00329,.,48.7,25,10,45.0,13.55,0.00,0.00,2.618489
hly,AgWx,beryljct,423,16APR2019:15:00:00,45.6,13.14,43.8,43.5,44.0,43.2,107,0.3835,12.9,6.0,23,11,0.798,85,80,38.7,39.3,37.9,0.00262,0.00330,.,48.7,25,87,44.7,13.58,0.02,0.02,1.9834031
hly,AgWx,beryljct,423,16APR2019:16:00:00,45.0,13.13,43.1,43.1,43.7,42.2,95,0.3428,13.7,9.0,26,13,0.793,89,79,38.6,39.5,37.4,0.00240,0.00321,.,48.7,25,100,43.9,13.60,0.03,0.02,1.237952
hly,AgWx,beryljct,423,16APR2019:17:00:00,43.9,13.04,41.6,41.4,42.2,41.0,63,0.2252,12.1,6.9,65,12,0.780,91,85,38.3,39.2,37.0,0.00091,0.00133,.,48.7,25,100,42.5,13.65,0.04,0.05,0.4759716
hly,AgWx,beryljct,423,16APR2019:18:00:00,43.1,12.94,41.0,40.7,41.3,40.3,29,0.1060,10.6,6.6,83,11,0.776,91,87,38.0,38.5,37.5,0.00016,0.00029,.,48.6,25,22,41.7,13.65,0.00,0.00,0.035886128
hly,AgWx,beryljct,423,16APR2019:19:00:00,42.2,12.89,40.2,39.9,40.3,39.6,3,0.0090,12.4,7.2,58,9.2,0.762,92,90,37.6,37.8,37.4,0.00021,0.00026,.,48.6,25,85,40.4,13.65,0.01,0.00,1E-6
hly,AgWx,beryljct,423,16APR2019:20:00:00,41.2,12.84,39.5,39.2,39.7,38.7,0,0.0002,9.8,5.7,55,9.5,0.744,92,92,37.0,37.7,36.5,0.00015,0.00019,.,48.5,25,6,39.5,13.65,0.00,0.00,1E-6
hly,AgWx,beryljct,423,16APR2019:21:00:00,40.1,12.81,38.0,38.0,38.9,36.4,0,0.0001,6.7,2.4,60,10,0.714,94,92,36.1,36.9,34.7,0.00005,0.00007,.,48.4,25,0,37.8,13.65,0.00,0.00,1E-6
hly,AgWx,beryljct,423,16APR2019:22:00:00,37.1,12.79,36.2,36.1,37.0,35.1,0,0.0001,3.4,1.5,110,7.7,0.675,95,94,34.6,35.6,33.7,-0.00001,-0.00001,.,48.3,25,59,35.7,13.65,0.00,0.00,1E-6
hly,AgWx,bigpiney,439,16APR2019:00:00:00,38.1,12.6,33.8,33.5,33.9,33.3,0,0.0001,4.8,2.9,175,6.3,0.609,94,93,31.9,32.2,31.7,-0.00007,-0.00008,32.2,31.8,35,1,0.0,0.68,0.00,0.00,1E-6
hly,AgWx,bigpiney,439,16APR2019:01:00:00,37.7,12.55,34.2,33.8,34.1,33.5,0,0.0001,3.3,1.6,137,11,0.620,94,94,32.3,32.5,31.9,-0.00013,-0.00017,32.2,31.8,35,1,0.0,0.68,0.00,0.00,1E-6
hly,AgWx,bigpiney,439,16APR2019:02:00:00,37.6,12.51,34.5,34.1,34.5,33.6,0,0.0001,8.7,3.4,157,9.8,0.626,95,93,32.6,33.0,32.1,-0.00007,-0.00009,32.1,31.8,35,1,0.0,0.68,0.00,0.00,1E-6
hly,AgWx,bigpiney,439,16APR2019:03:00:00,37.2,12.46,34.4,34.1,34.7,33.3,0,0.0001,9.6,5.6,151,8.4,0.621,95,93,32.4,33.1,31.7,0.00001,0.00003,32.1,31.8,35,1,0.0,0.68,0.00,0.00,1E-6
hly,AgWx,bigpiney,439,16APR2019:04:00:00,37.2,12.44,34.6,34.2,34.6,33.7,0,0.0001,11.0,7.5,115,11,0.626,95,93,32.5,32.9,32.0,0.00005,0.00007,32.1,31.8,35,1,0.0,0.68,0.00,0.00,1E-6
hly,AgWx,bigpiney,439,16APR2019:05:00:00,37.3,12.42,34.8,34.4,34.7,34.2,0,0.0009,10.6,7.1,102,12,0.637,95,93,33.1,33.4,32.6,0.00002,0.00003,32.0,31.8,35,1,0.0,0.68,0.00,0.00,0.0068593042
hly,AgWx,bigpiney,439,16APR2019:06:00:00,37.4,12.43,35.0,34.4,35.9,33.8,12,0.0433,7.6,1.8,113,26,0.631,94,91,32.7,33.9,32.2,0.00029,0.00037,32.0,31.9,35,1,0.0,0.68,0.00,0.00,0.24763257
hly,AgWx,bigpiney,439,16APR2019:07:00:00,37.9,12.44,36.1,35.7,37.1,35.1,74,0.2669,7.2,3.6,340,12,0.653,93,90,33.6,35.0,32.9,0.00127,0.00148,32.0,31.8,35,1,0.0,0.68,0.00,0.00,0.9194811
hly,AgWx,bigpiney,439,16APR2019:08:00:00,40.4,13.05,39.1,38.0,39.9,36.8,251,0.9048,6.2,3.3,178,19,0.704,92,86,35.1,36.7,34.3,0.00406,0.00449,32.0,31.8,35,1,0.0,0.68,0.00,0.00,1.6406125
hly,AgWx,bigpiney,439,16APR2019:09:00:00,45.3,13.49,41.8,40.9,42.5,39.7,370,1.3310,7.4,3.8,23,20,0.712,88,76,35.8,37.0,34.5,0.00647,0.00722,32.0,31.8,34,1,0.0,0.68,0.00,0.00,2.2862216
hly,AgWx,bigpiney,439,16APR2019:10:00:00,48.6,13.48,43.1,42.8,43.9,42.0,361,1.2987,10.4,4.7,48,22,0.699,79,69,35.7,37.5,33.9,0.00697,0.00798,32.1,31.8,34,0,0.0,0.68,0.00,0.00,2.7977698
hly,AgWx,bigpiney,439,16APR2019:11:00:00,49.2,13.05,43.0,43.3,44.4,40.7,250,0.8996,11.1,5.7,78,32,0.684,79,68,35.1,36.7,33.1,0.00546,0.00658,32.2,31.9,34,1,0.0,0.69,0.00,0.01,3.1332785
hly,AgWx,bigpiney,439,16APR2019:12:00:00,45.5,13.05,40.8,40.6,42.8,39.0,266,0.9582,12.8,7.4,264,20,0.693,87,74,35.3,37.4,33.9,0.00494,0.00585,32.4,31.9,34,1,0.0,0.70,0.00,0.01,3.2607115
hly,AgWx,bigpiney,439,16APR2019:13:00:00,44.9,13.21,39.6,39.9,41.8,38.4,167,0.6019,14.7,6.7,251,42,0.676,86,73,34.5,36.2,32.2,0.00357,0.00436,32.5,31.8,34,1,0.0,0.71,0.00,0.01,3.1777295
hly,AgWx,bigpiney,439,16APR2019:14:00:00,43.5,14.23,39.8,39.5,41.1,38.0,268,0.9629,11.2,5.7,172,17,0.645,84,72,33.7,35.1,32.5,0.00504,0.00587,32.6,31.9,35,1,0.0,0.72,0.00,0.01,2.8866455
hly,AgWx,bigpiney,439,16APR2019:15:00:00,44.6,13.33,42.6,42.0,43.2,40.9,237,0.8539,16.8,7.4,332,19,0.631,77,62,33.1,35.3,31.0,0.00510,0.00641,32.7,31.9,34,1,0.0,0.72,0.00,0.00,2.4089311
hly,AgWx,bigpiney,439,16APR2019:16:00:00,46.7,14.12,43.9,43.9,44.6,43.0,399,1.4345,19.0,14.0,338,14,0.591,71,55,31.6,34.6,28.5,0.00752,0.01004,32.8,31.9,35,1,0.0,0.72,0.00,0.00,1.7860072
hly,AgWx,bigpiney,439,16APR2019:17:00:00,47.7,13.29,42.1,42.2,43.4,41.2,238,0.8566,21.4,15.2,331,9.9,0.532,63,56,28.8,31.3,26.9,0.00546,0.00804,32.9,31.9,34,0,0.0,0.72,0.00,0.00,1.0726987
hly,AgWx,bigpiney,439,16APR2019:18:00:00,45.2,12.87,40.1,40.2,41.3,38.7,60,0.2142,17.4,12.1,322,8.1,0.515,65,58,27.9,28.7,26.9,0.00266,0.00460,33.0,31.9,34,0,0.0,0.72,0.00,0.00,0.36206025
hly,AgWx,bigpiney,439,16APR2019:19:00:00,42.0,12.79,36.3,36.6,38.7,34.4,5,0.0169,18.1,11.2,317,8.0,0.476,71,61,26.0,27.6,25.3,0.00079,0.00130,33.0,31.9,35,0,0.0,0.72,0.00,0.00,0.0186769476
hly,AgWx,bigpiney,439,16APR2019:20:00:00,38.8,12.75,34.3,34.5,35.2,32.3,0,0.0001,12.9,7.2,307,13,0.472,73,69,25.9,26.3,24.7,0.00031,0.00041,32.9,31.9,35,0,0.0,0.72,0.00,0.00,1E-6
hly,AgWx,bigpiney,439,16APR2019:21:00:00,36.4,12.72,32.8,32.6,33.5,31.1,0,0.0001,7.5,4.7,299,19,0.452,77,70,24.7,25.4,23.7,0.00008,0.00015,32.9,31.9,35,0,0.0,0.72,0.00,0.00,1E-6
hly,AgWx,bigpiney,439,16APR2019:22:00:00,35.0,12.69,33.3,33.0,33.8,31.1,0,0.0001,10.0,7.3,287,10,0.452,76,69,24.5,24.9,23.7,0.00031,0.00041,32.7,31.9,35,0,0.0,0.72,0.00,0.00,1E-6
hly,AgWx,bigpiney,439,16APR2019:23:00:00,34.8,12.69,31.2,31.8,32.1,31.3,0,0.0000,6.8,5.8,307,10,0.438,75,73,24.4,24.6,23.9,0.00004,0.00006,32.7,31.9,35,0,0.0,0.72,0.00,0.00,2.5E-7
hly,AgWx,blo,425,16APR2019:00:00:00,39.3,12.95,39.5,37.8,38.2,37.5,0,0.0001,4.9,2.8,239,12,0.715,94,91,35.9,36.2,35.7,-0.00008,-0.00009,43.3,43.4,39,100,41.1,19.58,0.00,0.01,1E-6
hly,AgWx,blo,425,16APR2019:01:00:00,39.1,12.91,40.4,38.1,39.1,37.7,0,0.0001,4.8,2.6,227,12,0.733,94,93,36.4,37.2,36.0,-0.00010,-0.00012,43.0,43.3,39,100,41.6,19.59,0.01,0.00,1E-6
hly,AgWx,blo,425,16APR2019:02:00:00,39.4,12.9,41.2,39.1,39.8,38.4,0,0.0001,10.2,3.0,202,35,0.740,93,89,36.7,37.4,36.3,-0.00005,-0.00005,42.6,43.1,39,100,42.0,19.60,0.00,0.01,1E-6
hly,AgWx,blo,425,16APR2019:03:00:00,39.4,12.87,40.8,38.9,39.3,38.6,0,0.0001,3.7,1.7,278,30,0.735,93,91,36.8,37.1,36.3,-0.00014,-0.00018,42.4,42.9,39,100,42.0,19.60,0.00,0.00,1E-6
hly,AgWx,blo,425,16APR2019:04:00:00,39.1,12.86,39.4,37.8,38.7,37.4,0,0.0001,3.8,1.1,114,27,0.732,97,91,36.5,36.7,36.2,-0.00020,-0.00028,42.2,42.8,39,100,41.8,19.62,0.02,0.02,1E-6
hly,AgWx,blo,425,16APR2019:05:00:00,38.8,12.85,38.1,37.2,37.7,36.7,0,0.0005,5.4,1.8,157,61,0.727,98,96,36.5,36.9,36.1,-0.00018,-0.00024,41.9,42.7,39,100,41.4,19.63,0.00,0.01,0.0035920884
hly,AgWx,blo,425,16APR2019:06:00:00,38.6,12.85,37.5,36.9,37.4,36.7,25,0.0895,2.5,1.3,144,12,0.736,99,98,36.5,37.2,36.2,0.00021,0.00023,41.8,42.5,39,100,42.2,19.65,0.02,0.02,0.20206841
hly,AgWx,blo,425,16APR2019:07:00:00,39.1,13.02,37.2,37.2,37.6,36.7,68,0.2454,4.2,2.3,115,18,0.746,100,99,37.0,37.4,36.6,0.00105,0.00112,41.7,42.4,39,100,43.3,19.66,0.01,0.02,0.8514102
hly,AgWx,blo,425,16APR2019:08:00:00,39.4,13.07,37.3,37.0,38.0,36.7,122,0.4382,4.8,2.3,105,22,0.748,100,100,37.0,38.0,36.6,0.00213,0.00227,41.9,42.3,40,100,44.6,19.67,0.01,0.01,1.5809048
hly,AgWx,blo,425,16APR2019:09:00:00,40.2,13.46,37.6,37.3,38.4,36.8,183,0.6603,4.5,2.7,87,18,0.755,100,100,37.3,38.4,36.8,0.00318,0.00338,42.2,42.2,40,100,46.2,19.69,0.02,0.02,2.2407709
hly,AgWx,blo,425,16APR2019:10:00:00,41.1,13.96,37.6,38.0,39.1,37.4,190,0.6850,6.5,3.9,47,15,0.768,100,100,38.0,39.1,37.5,0.00325,0.00344,42.9,42.2,40,100,45.9,19.70,0.01,0.01,2.7660252
hly,AgWx,blo,425,16APR2019:11:00:00,40.8,13.99,37.7,37.6,38.3,37.1,187,0.6717,7.7,5.4,49,10,0.763,100,100,37.6,38.3,37.1,0.00300,0.00318,43.6,42.3,40,100,44.6,19.74,0.03,0.04,3.1184975
hly,AgWx,blo,425,16APR2019:12:00:00,40.9,14.41,38.0,37.4,38.5,36.6,237,0.8516,7.5,4.0,67,17,0.759,100,100,37.4,38.5,36.6,0.00396,0.00420,44.1,42.4,40,100,46.3,19.75,0.01,0.01,3.2660197
hly,AgWx,blo,425,16APR2019:13:00:00,41.4,14.6,38.7,37.5,38.4,36.6,285,1.0261,7.3,4.0,78,18,0.760,100,100,37.5,38.4,36.6,0.00469,0.00498,44.7,42.6,40,100,49.0,19.75,0.00,0.00,3.1964046
hly,AgWx,blo,425,16APR2019:14:00:00,43.0,14.56,39.2,38.3,39.5,37.4,373,1.3411,10.9,4.8,76,17,0.785,100,100,38.3,39.6,37.4,0.00585,0.00621,45.5,42.8,40,100,55.7,19.75,0.00,0.00,2.9132971
hly,AgWx,blo,425,16APR2019:15:00:00,43.6,14.14,39.0,38.1,39.5,37.2,321,1.1571,8.6,3.8,54,20,0.789,100,100,38.1,39.5,37.2,0.00509,0.00540,46.4,43.1,40,100,54.5,19.75,0.00,0.00,2.4461047
hly,AgWx,blo,425,16APR2019:16:00:00,44.7,14.13,41.2,38.4,39.5,37.1,241,0.8659,14.1,5.6,240,19,0.780,100,94,38.1,39.4,36.9,0.00352,0.00377,47.1,43.4,40,100,51.9,19.75,0.00,0.00,1.8276175
hly,AgWx,blo,425,16APR2019:17:00:00,43.9,14.12,41.2,41.0,42.1,39.5,237,0.8520,13.3,5.2,315,37,0.568,93,57,31.1,37.8,27.2,0.00388,0.00484,47.3,43.7,40,100,50.3,19.75,0.01,0.00,1.1271921
hly,AgWx,blo,425,16APR2019:18:00:00,43.3,13.51,40.0,40.6,42.2,39.3,90,0.3233,10.1,4.1,283,29,0.532,66,58,28.6,29.6,27.7,0.00145,0.00234,47.1,44.0,40,100,44.9,19.75,0.01,0.00,0.4080535
hly,AgWx,blo,425,16APR2019:19:00:00,39.8,13.16,38.3,38.8,40.3,37.4,9,0.0307,8.7,3.4,245,28,0.535,73,62,28.8,30.1,28.0,0.00018,0.00047,46.4,44.2,40,100,40.7,19.75,0.00,0.00,0.0253688077
hly,AgWx,blo,425,16APR2019:20:00:00,37.0,13.09,36.2,37.3,38.8,35.4,0,0.0001,8.2,2.2,267,28,0.515,73,65,28.0,29.1,26.7,0.00015,0.00024,45.2,44.2,39,100,38.4,19.76,0.00,0.00,1E-6
hly,AgWx,blo,425,16APR2019:21:00:00,34.9,13.03,34.8,35.5,37.7,33.3,0,0.0001,5.0,2.3,255,27,0.517,82,67,28.2,29.9,26.5,0.00011,0.00018,44.1,44.1,39,100,36.6,19.76,0.00,0.00,1E-6
hly,AgWx,blo,425,16APR2019:22:00:00,33.1,13.02,34.8,34.5,36.9,33.3,0,0.0001,7.6,3.4,256,21,0.502,81,65,27.2,29.8,24.4,0.00022,0.00031,43.0,43.9,39,100,35.1,19.76,0.01,0.00,1E-6
hly,AgWx,blo,425,16APR2019:23:00:00,32.8,13.01,32.6,34.0,34.3,33.4,0,0.0000,7.7,5.4,270,15,0.451,71,68,25.0,25.4,24.6,0.00011,0.00015,42.3,43.7,39,100,34.8,19.76,0.00,0.00,2.5E-7
hly,AgWx,bloomfield,441,16APR2019:00:00:00,57.3,12.49,54.2,54.1,56.1,49.6,6,0.0200,4.9,2.2,149,47,0.397,40,23,21.5,26.3,19.1,0.00084,0.00129,58.9,58.9,26,0,0.0,3.33,0.00,0.00,1E-6
hly,AgWx,bloomfield,441,16APR2019:01:00:00,56.9,12.45,56.7,56.6,57.1,55.9,5,0.0189,8.1,4.3,209,13,0.397,27,25,21.4,22.4,20.9,0.00194,0.00271,58.2,58.4,26,0,0.0,3.33,0.00,0.00,1E-6
hly,AgWx,bloomfield,441,16APR2019:02:00:00,57.0,12.43,52.9,53.0,56.3,51.1,5,0.0191,3.5,1.3,313,23,0.442,38,27,24.2,26.4,22.5,0.00038,0.00063,57.6,58.0,26,0,0.0,3.33,0.00,0.00,1E-6
hly,AgWx,bloomfield,441,16APR2019:03:00:00,55.1,12.42,52.1,51.4,53.5,49.8,5,0.0188,3.4,1.6,102,30,0.452,43,30,25.1,28.2,23.0,0.00049,0.00080,57.1,57.6,26,0,0.0,3.33,0.00,0.00,1E-6
hly,AgWx,bloomfield,441,16APR2019:04:00:00,53.8,12.37,50.3,49.6,51.5,47.6,5,0.0189,6.0,2.2,121,35,0.482,50,34,26.7,30.0,23.9,0.00067,0.00102,56.6,57.2,25,0,0.0,3.33,0.00,0.00,1E-6
hly,AgWx,bloomfield,441,16APR2019:05:00:00,52.7,12.36,49.9,49.6,52.3,47.5,6,0.0204,3.6,1.4,142,28,0.522,53,33,27.1,31.6,24.0,0.00031,0.00052,56.1,56.9,25,0,0.0,3.33,0.00,0.00,0.009283791
hly,AgWx,bloomfield,441,16APR2019:06:00:00,53.3,12.34,54.2,53.7,54.4,52.3,45,0.1624,9.4,5.3,204,12,0.490,36,34,26.4,27.4,25.6,0.00304,0.00544,55.7,56.5,25,0,0.0,3.33,0.00,0.00,0.29632778
hly,AgWx,bloomfield,441,16APR2019:07:00:00,55.7,12.31,55.4,54.9,55.6,54.2,132,0.4766,12.7,7.2,196,14,0.510,37,34,27.5,28.7,26.6,0.00622,0.00949,55.4,56.2,25,0,0.0,3.33,0.00,0.00,1.0459972
hly,AgWx,bloomfield,441,16APR2019:08:00:00,58.2,12.51,57.0,56.6,57.5,55.5,260,0.9372,16.1,8.7,213,15,0.536,37,33,28.8,31.2,27.6,0.00942,0.01347,55.6,56.0,25,0,0.0,3.33,0.00,0.00,1.8290497
hly,AgWx,bloomfield,441,16APR2019:09:00:00,60.5,12.9,58.4,57.5,58.7,56.6,386,1.3889,17.4,10.9,225,16,0.538,35,31,28.8,30.5,27.0,0.01271,0.01772,56.2,55.9,25,0,0.0,3.33,0.00,0.00,2.520619
hly,AgWx,bloomfield,441,16APR2019:10:00:00,61.9,12.88,57.7,57.5,59.1,56.7,445,1.6020,25.6,12.9,237,16,0.551,37,30,29.2,31.8,26.7,0.01425,0.01982,57.1,56.1,25,0,0.0,3.33,0.00,0.00,3.0523159
hly,AgWx,bloomfield,441,16APR2019:11:00:00,63.2,13.24,57.1,57.1,59.5,55.5,540,1.9429,21.0,12.6,219,21,0.580,43,32,30.3,33.9,27.3,0.01546,0.02085,58.3,56.4,25,0,0.0,3.33,0.00,0.00,3.3794479
hly,AgWx,bloomfield,441,16APR2019:12:00:00,62.7,14.1,57.9,56.7,60.5,54.0,606,2.1801,18.5,9.6,209,21,0.631,47,30,32.6,36.8,27.1,0.01575,0.02010,59.4,56.9,25,0,0.0,3.33,0.00,0.00,3.4736876
hly,AgWx,bloomfield,441,16APR2019:13:00:00,65.8,13.59,61.4,60.2,62.0,58.4,837,3.0118,15.5,8.1,223,27,0.568,34,29,29.9,32.6,27.5,0.02112,0.02606,61.2,57.5,25,0,0.0,3.33,0.00,0.00,3.3565654
hly,AgWx,bloomfield,441,16APR2019:14:00:00,68.1,13.57,61.6,61.0,63.2,59.6,696,2.5057,14.8,6.2,139,57,0.569,34,28,30.3,33.6,28.3,0.01815,0.02227,63.6,58.4,25,0,0.0,3.33,0.00,0.00,2.999687
hly,AgWx,bloomfield,441,16APR2019:15:00:00,68.0,13.64,61.1,61.1,62.8,60.3,401,1.4434,14.5,6.6,245,37,0.534,33,27,29.3,32.7,26.7,0.01247,0.01646,65.1,59.5,25,0,0.0,3.33,0.00,0.00,2.4514699
hly,AgWx,bloomfield,441,16APR2019:16:00:00,68.4,12.84,63.9,63.2,65.0,61.0,461,1.6580,15.1,6.3,268,48,0.511,31,23,27.6,31.8,25.2,0.01312,0.01732,65.6,60.4,26,0,0.0,3.33,0.00,0.00,1.7511448
hly,AgWx,bloomfield,441,16APR2019:17:00:00,67.3,12.72,62.3,62.4,63.9,60.2,168,0.6046,16.8,7.3,264,22,0.470,30,20,25.0,29.1,20.8,0.00798,0.01235,65.6,61.1,26,0,0.0,3.33,0.00,0.00,0.9643638
hly,AgWx,bloomfield,441,16APR2019:18:00:00,64.2,12.6,60.0,60.3,61.9,58.7,48,0.1716,10.4,2.7,278,22,0.483,30,22,26.1,28.8,22.8,0.00120,0.00281,64.8,61.4,26,0,0.0,3.33,0.00,0.00,0.23676565
hly,AgWx,bloomfield,441,16APR2019:19:00:00,60.3,12.58,58.4,58.3,59.0,58.0,6,0.0209,3.2,1.1,232,12,0.461,29,27,25.1,26.2,24.6,-0.00034,-0.00039,63.5,61.3,26,0,0.0,3.33,0.00,0.00,0.0046452668
hly,AgWx,bloomfield,441,16APR2019:20:00:00,59.1,12.57,57.4,57.9,59.3,56.1,5,0.0191,15.9,5.3,260,34,0.524,34,27,27.2,29.0,24.7,0.00159,0.00220,62.3,61.0,26,0,0.0,3.33,0.00,0.00,1E-6
hly,AgWx,bloomfield,441,16APR2019:21:00:00,59.5,12.53,56.5,56.6,58.1,54.9,5,0.0188,17.9,6.6,286,19,0.583,41,32,30.5,31.9,28.4,0.00178,0.00237,61.3,60.6,26,0,0.0,3.33,0.00,0.00,1E-6
hly,AgWx,bloomfield,441,16APR2019:22:00:00,57.7,12.54,54.3,54.1,55.3,52.8,5,0.0191,5.2,2.9,222,17,0.607,47,40,32.0,33.3,31.6,0.00046,0.00077,60.4,60.1,26,0,0.0,3.33,0.00,0.00,1E-6
hly,AgWx,bloomfield,441,16APR2019:23:00:00,56.8,12.52,52.2,53.9,54.9,53.2,5,0.0047,4.4,2.7,190,33,0.643,46,41,31.7,33.3,31.3,0.00010,0.00017,59.9,59.9,26,0,0.0,3.33,0.00,0.00,2.5E-7
hly,AgWx,bluebell,436,16APR2019:00:00:00,52.3,12.78,51.4,51.2,52.6,49.9,0,0.0001,14.5,8.4,307,17,0.583,50,41,31.0,32.1,29.4,0.00210,0.00260,46.0,46.4,20,0,53.4,17.02,0.00,0.00,1E-6
hly,AgWx,bluebell,436,16APR2019:01:00:00,51.3,12.76,48.4,48.9,51.8,47.0,0,0.0001,20.3,12.0,292,11,0.627,60,43,32.2,33.7,29.7,0.00201,0.00237,45.6,46.2,20,66,51.0,17.02,0.00,0.00,1E-6
hly,AgWx,bluebell,436,16APR2019:02:00:00,49.6,12.74,48.5,48.1,50.0,47.1,0,0.0001,20.5,11.0,290,9.5,0.618,58,47,32.6,33.5,30.7,0.00179,0.00213,45.3,46.0,20,81,50.3,17.02,0.00,0.00,1E-6
hly,AgWx,bluebell,436,16APR2019:03:00:00,50.1,12.72,48.1,48.6,50.2,46.8,0,0.0001,20.3,13.4,283,11,0.635,61,46,32.5,34.1,30.4,0.00200,0.00233,45.1,45.8,20,67,50.5,17.02,0.01,0.00,1E-6
hly,AgWx,bluebell,436,16APR2019:04:00:00,47.9,12.69,44.7,44.8,46.8,44.1,0,0.0001,13.2,7.9,304,10,0.680,70,61,34.7,35.0,34.1,0.00103,0.00127,44.8,45.6,20,100,47.2,17.02,0.00,0.00,1E-6
hly,AgWx,bluebell,436,16APR2019:05:00:00,46.7,12.67,44.9,44.9,45.7,43.6,0,0.0011,9.5,5.2,282,13,0.663,70,63,34.1,34.6,33.6,0.00090,0.00117,44.5,45.3,20,100,47.6,17.02,0.00,0.00,0.0052426955
hly,AgWx,bluebell,436,16APR2019:06:00:00,46.2,12.68,44.4,44.0,44.5,43.6,22,0.0781,6.0,2.7,316,5.8,0.676,71,66,34.6,35.4,33.8,0.00083,0.00134,44.3,45.2,20,93,48.6,17.02,0.00,0.00,0.23208376
hly,AgWx,bluebell,436,16APR2019:07:00:00,46.3,12.72,45.6,45.3,46.8,44.4,70,0.2516,5.7,1.6,220,29,0.700,72,64,35.2,36.0,34.7,0.00188,0.00231,44.4,45.0,20,5,53.0,17.02,0.00,0.00,0.9134989
hly,AgWx,bluebell,436,16APR2019:08:00:00,48.3,12.84,47.9,47.4,48.6,46.3,178,0.6418,13.4,6.1,216,19,0.705,67,57,35.3,37.3,33.4,0.00478,0.00630,45.0,45.0,20,21,55.4,17.02,0.00,0.00,1.6596438
hly,AgWx,bluebell,436,16APR2019:09:00:00,49.8,13.49,47.3,47.4,48.4,46.7,271,0.9743,13.6,7.4,266,19,0.721,69,59,35.8,37.8,33.4,0.00645,0.00823,46.0,45.1,20,14,56.7,17.02,0.00,0.00,2.3273693
hly,AgWx,bluebell,436,16APR2019:10:00:00,49.6,13.23,46.6,46.7,47.3,46.0,119,0.4296,12.4,6.8,298,12,0.713,69,63,35.9,36.8,35.2,0.00395,0.00540,46.5,45.5,20,6,52.8,17.02,0.00,0.00,2.8554653
hly,AgWx,bluebell,436,16APR2019:11:00:00,49.0,13.41,47.0,47.1,47.8,46.3,196,0.7070,9.9,4.7,266,21,0.718,69,62,36.1,37.4,34.4,0.00519,0.00644,46.7,45.7,20,61,54.7,17.02,0.00,0.00,3.1986953
hly,AgWx,bluebell,436,16APR2019:12:00:00,48.5,13.42,47.4,47.3,47.9,46.6,167,0.6022,12.6,4.9,218,20,0.726,71,60,35.5,38.1,33.8,0.00474,0.00604,47.2,46.0,20,56,54.6,17.02,0.00,0.00,3.3342014
hly,AgWx,bluebell,436,16APR2019:13:00:00,48.4,13.53,47.6,47.4,48.2,46.8,186,0.6691,8.3,2.9,256,35,0.702,71,60,35.5,38.2,34.0,0.00483,0.00576,47.5,46.2,20,46,57.4,17.02,0.00,0.00,3.2455792
hly,AgWx,bluebell,436,16APR2019:14:00:00,48.4,13.52,46.5,46.1,47.9,44.5,243,0.8748,10.2,3.5,232,22,0.795,80,62,38.2,39.9,35.3,0.00555,0.00644,47.9,46.4,20,85,55.6,17.03,0.01,0.00,2.9299577
hly,AgWx,bluebell,436,16APR2019:15:00:00,49.7,13.44,48.2,47.7,48.3,47.1,163,0.5853,5.6,1.8,92,41,0.758,72,64,37.6,38.8,36.4,0.00404,0.00468,48.8,46.7,20,77,57.5,17.03,0.00,0.00,2.4385175
hly,AgWx,bluebell,436,16APR2019:16:00:00,49.5,13.37,47.7,47.8,48.6,46.7,138,0.4960,7.4,4.2,177,21,0.784,76,63,38.2,39.8,36.0,0.00365,0.00463,48.7,47.1,20,37,55.3,17.03,0.00,0.00,1.792847
hly,AgWx,bluebell,436,16APR2019:17:00:00,49.9,13.3,47.8,47.9,48.7,47.1,106,0.3832,9.8,6.4,224,12,0.757,72,64,37.6,38.9,36.6,0.00339,0.00474,48.5,47.2,20,4,54.1,17.02,0.00,0.00,1.0594767
hly,AgWx,bluebell,436,16APR2019:18:00:00,48.6,12.94,45.4,45.7,47.2,44.5,22,0.0778,11.4,6.7,232,9.2,0.772,77,69,37.8,38.4,37.1,0.00172,0.00275,47.9,47.2,20,97,49.1,17.02,0.00,0.00,0.34159337
hly,AgWx,bluebell,436,16APR2019:19:00:00,46.4,12.87,43.6,43.7,44.5,42.8,1,0.0032,7.3,3.9,248,8.7,0.760,82,76,37.4,37.9,37.1,0.00048,0.00074,47.1,47.1,20,100,45.7,17.03,0.00,0.00,0.0158468994
hly,AgWx,bluebell,436,16APR2019:20:00:00,44.5,12.84,42.3,42.2,42.9,41.6,0,0.0001,5.0,1.6,152,31,0.784,89,83,38.2,38.8,37.8,0.00001,0.00004,46.5,46.8,20,100,44.8,17.03,0.00,0.00,1E-6
hly,AgWx,bluebell,436,16APR2019:21:00:00,43.7,12.79,42.0,41.7,42.3,41.4,0,0.0001,3.9,1.8,155,24,0.787,90,86,38.4,38.9,37.9,0.00001,0.00004,46.1,46.5,20,100,45.1,17.03,0.00,0.00,1E-6
hly,AgWx,bluebell,436,16APR2019:22:00:00,43.4,12.77,41.6,41.4,42.0,40.8,0,0.0001,3.6,1.7,117,13,0.791,92,86,38.5,38.9,37.9,-0.00001,0.00000,45.7,46.3,20,100,44.4,17.05,0.00,0.01,1E-6
hly,AgWx,bluebell,436,16APR2019:23:00:00,43.0,12.77,40.6,40.6,40.9,40.3,0,0.0000,4.3,2.4,76,17,0.769,91,90,38.1,38.6,37.7,0.00000,0.00001,45.5,46.1,20,100,43.2,17.05,0.00,0.00,2.5E-7
hly,AgWx,bluecreek,403,16APR2019:00:00:00,43.6,12.95,42.1,42.0,42.2,41.8,0,0.0001,4.9,1.7,162,17,0.869,98,95,40.9,41.3,40.7,0.00006,0.00008,44.8,43.8,53,.,.,18.69,0.01,0.03,1E-6
hly,AgWx,bluecreek,403,16APR2019:01:00:00,43.5,12.93,42.1,42.0,42.1,41.8,0,0.0001,7.8,4.0,199,15,0.889,99,98,41.5,41.8,41.2,0.00005,0.00006,44.5,43.7,53,.,.,18.75,0.06,0.06,1E-6
hly,AgWx,bluecreek,403,16APR2019:02:00:00,43.7,12.89,42.4,42.3,42.6,42.0,0,0.0001,10.7,6.6,164,7.8,0.914,100,99,42.1,42.6,41.7,0.00002,0.00002,44.3,43.7,53,.,.,18.77,0.02,0.03,1E-6
hly,AgWx,bluecreek,403,16APR2019:03:00:00,44.0,12.86,42.5,42.5,42.7,42.2,0,0.0001,10.0,6.0,181,13,0.921,100,100,42.5,42.7,42.2,0.00001,0.00001,44.2,43.6,53,.,.,18.87,0.10,0.10,1E-6
hly,AgWx,bluecreek,403,16APR2019:04:00:00,43.7,12.85,42.1,42.0,42.3,41.8,0,0.0001,9.8,5.3,167,9.5,0.906,100,100,42.0,42.3,41.8,0.00001,0.00001,44.0,43.4,53,.,.,18.96,0.09,0.09,1E-6
hly,AgWx,bluecreek,403,16APR2019:05:00:00,43.3,12.82,41.6,41.6,42.0,41.4,0,0.0002,8.7,5.4,159,7.8,0.889,100,100,41.6,42.0,41.4,0.00001,0.00001,43.8,43.3,53,.,.,19.03,0.07,0.07,0.0020234
hly,AgWx,bluecreek,403,16APR2019:06:00:00,42.7,12.8,40.7,40.6,41.5,39.0,3,0.0119,13.2,4.6,243,20,0.819,100,89,39.8,41.6,36.7,0.00019,0.00029,43.6,43.3,53,.,.,19.11,0.08,0.08,0.167904953
hly,AgWx,bluecreek,403,16APR2019:07:00:00,41.1,12.85,39.6,39.5,39.8,39.3,27,0.0965,9.8,4.9,349,11,0.739,92,89,36.9,37.4,36.3,0.00079,0.00107,43.4,43.3,53,.,.,19.17,0.06,0.05,0.7895638
hly,AgWx,bluecreek,403,16APR2019:08:00:00,40.5,12.96,39.7,39.5,39.8,39.2,61,0.2201,12.7,5.6,337,16,0.706,89,81,35.8,36.6,34.1,0.00152,0.00198,43.2,43.1,53,.,.,19.21,0.04,0.05,1.5192782